STARLINK-1402, 45685

Orbit data source: Space-Track

STARLINK-1402, 45685 is a payload satellite owned by SpaceX/Seattle (US) in LEO that was launched on Thu, 04 Jun 2020 UTC via an FALCON 9 launch vehicle from the Air Force Eastern Test Range (AFETR). Payload-class satellites include a variety of spacecraft equipped with specific instruments for various scientific and technological missions. These include communications satellites like Starlink; space stations such as the ISS; scientific satellites like the Hubble; Earth observation satellites from companies like Planet Labs, Umbra, and HawkEye 360; GPS; miniature CubeSats for education and research; and military/defense satellites.

Loading next visibility...
Identifier
45685, 2020-035AE
Orbit
LEO
Last TLE update
1 day ago
Origin
Manufacturer
SpaceX/Seattle
Mission
Operational Commercial Communications
Bus & Motor
STARLINK, Unknown motor
Mass
260 kg wet, ~248 kg dry
Launch date (UTC)
2020-06-04 (5 years ago)
Launch vehicle
FALCON 9
Launch site
Air Force Eastern Test Range (AFETR)
Object type
Payload
Rocket body
Debris
Shape & HBR
Box + 1 Pan, 8.86 m
Radar Cross Section
13.562 m², Large (>1 m²)

Expand to show TLE details & history

TLE from 1 day ago
0 STARLINK-1402
1 45685U 20035AE  25118.72522937  .00010446  00000-0  71905-3 0  9992
2 45685  53.0545  24.9630 0001123  98.3158 261.7958 15.06403975271487
Epoch: 2025-04-28T17:24Z
Definitive object data (Epoch: 2025-04-28T17:24:19.817Z)
Latitude
-0.00005°
Longitude
-93.05474°
Altitude
548.19 km
Speed
7.589 km/s
True Right ascension
01h 39m 51s
True Declination
0° 00' 00"
Sunlit
Object was in daylight at TLE epoch
Visualization TLE readout
Latitude
25.67281°
Longitude
-77.67146°
Altitude
547.897 km
Speed
7.592 km/s
Apparent Right ascension
23h 40m 16s
Apparent Declination
-9° 32' 18"
Sunlit
Object is in daylight
Visualization observer readout
Local Sidereal Time
07:20:28
Azimuth
278.958° WNW
Elevation
-25.251°
Doppler factor
1
Orbital elements
Apogee altitude
548.248 km
Perigee altitude
546.692 km
Semi-major axis
6,925.607 km
Eccentricity
0.0001123
Inclination
53.0545°
RAAN
24.963°
Arg. of periapsis
98.3158°
True anomaly
261.78306°
Mean anomaly
261.7958°
Eccentric anomaly
261.78943°
Mean motion
3.76579 °/min
BSTAR
0.00071905
Orbital period
95.6 mins
Loading maneuver chart data...
Loading SW <> Apogee altitude chart data...

STARLINK-1402 Visibility forecast

Observer location: undefined°, undefined°

Span
Click to sort rows by Start time (UTC) header in descending order
Start Az.
Max El. time (UTC)
Max El. Az.
Max El.
End time (UTC)
End Az.
5 mins2025-04-30 01:43:12.795Z344.806° N2025-04-30 01:45:12.795Z27.239° NE23.308°2025-04-30 01:48:12.795Z79.72° E
6 mins2025-04-30 03:22:12.795Z299.834° NW2025-04-30 03:25:12.795Z199.388° SSW40.954°2025-04-30 03:28:12.795Z144.855° SSE
4 mins2025-04-30 18:56:12.795Z163.471° S2025-04-30 18:58:12.795Z119.657° SE22.102°2025-04-30 19:00:12.795Z83.852° E
6 mins2025-04-30 20:34:12.795Z255.963° W2025-04-30 20:37:12.795Z331.216° NNW36.43°2025-04-30 20:40:12.795Z37.016° NE
|